[[{"header":{"parameterUnit":"m.s-1","parameterCategory":1,"la1":30.2991,"la2":30.254,"lo1":-89.0895,"lo2":-89.0444,"dx":0.0017,"dy":0.0017,"nx":28,"ny":28,"refTime":"2022-12-12T03:00:00:Z","depth":0,"parameterNumber":2,"parameterNumberName":"U-component_of_WINDS"},"data":[0,0,0,0,0,0,0,0,0,0,0,0,0,0,0,0,0,0,0,0,0,0,0,0,0,0,0,0,0,0,0,0,0,0,0,0,0,0,0,0,0,0,0,0,0,0,0,0,0,0,0,0,0,0,0,0,0,0,-0.8821,-0.8822,0,-0.8898,-0.8899,-0.8899,-0.8905,-0.8904,-0.8903,-0.8902,-0.8988,-0.8991,-0.8994,0,0,0,0,0,0,0,0,0,0,0,0,0,-0.8688,-0.869,-0.8821,-0.8822,-0.8823,-0.8898,-0.8899,-0.89,-0.8905,-0.8904,-0.8903,-0.8902,-0.8987,-0.8991,-0.8995,0,0,0,0,0,0,0,0,0,0,0,0,0,-0.8753,-0.8691,-0.8821,-0.8835,-0.8837,-0.8897,-0.8899,-0.89,-0.8905,-0.8904,-0.8903,-0.8901,-0.8986,-0.8991,-0.8995,-0.905,0,0,-0.9009,-0.9011,0,0,0,0,0,0,0,0,-0.875,-0.8758,-0.8832,-0.8834,-0.8836,-0.889,-0.8883,-0.8951,-0.8906,-0.8879,-0.8902,-0.8901,-0.8957,-0.8964,-0.8982,-0.9054,-0.9058,-0.901,-0.9013,-0.9015,-0.9016,0,0,0,0,0,0,0,-0.8745,-0.8755,-0.8852,-0.8833,-0.8836,-0.8839,-0.8847,-0.8896,-0.8925,-0.8882,-0.8882,-0.8891,-0.8958,-0.8977,-0.8984,-0.9059,-0.901,-0.9014,-0.9017,-0.9019,-0.9182,-0.9184,0,0,0,0,0,0,-0.8737,-0.8751,-0.8849,-0.8854,-0.8788,-0.8843,-0.8852,-0.8874,-0.8924,-0.8931,-0.8892,-0.8891,-0.897,-0.8978,-0.8987,-0.9055,-0.9015,-0.9019,-0.9022,-0.9181,-0.9183,-0.9184,0,0,0,0,0,0,-0.8734,-0.8745,-0.8846,-0.8803,-0.8816,-0.8846,-0.8872,-0.8877,-0.8895,-0.8932,-0.8938,-0.8905,-0.8969,-0.898,-0.9034,-0.9058,-0.9021,-0.9025,-0.9179,-0.9181,-0.9183,-0.9192,0,0,0,0,0,0,-0.873,-0.8744,-0.8764,-0.8803,-0.8818,-0.889,-0.8873,-0.8879,-0.8902,-0.8902,-0.8946,-0.8952,-0.8969,-0.9027,-0.9039,-0.9064,-0.9029,-0.9177,-0.918,-0.9183,-0.9189,-0.9194,-0.9198,0,0,0,0,0,-0.8725,-0.8764,-0.8765,-0.8776,-0.8842,-0.8891,-0.89,-0.8916,-0.8904,-0.8925,-0.8949,-0.8951,-0.9053,-0.9033,-0.9046,-0.9073,-0.9175,-0.9179,-0.9182,-0.9187,-0.9193,-0.9198,0,0,0,0,0,0,-0.873,-0.877,-0.877,-0.8823,-0.8853,-0.8892,-0.8919,-0.8921,-0.8958,-0.8956,-0.8977,-0.8987,-0.904,-0.9062,-0.9038,-0.9129,-0.9114,-0.912,-0.9113,-0.9119,-0.9123,-0.9117,-0.9033,0,0,0,0,0,-0.8736,-0.877,-0.8804,-0.8848,-0.8862,-0.8888,-0.891,-0.8919,-0.8953,-0.8966,-0.8994,-0.9029,-0.9069,-0.9095,-0.9134,-0.9192,-0.9203,-0.9218,-0.9222,-0.9225,-0.9231,-0.9265,-0.9272,-0.9196,-0.9196,-0.9196,0,0,-0.8751,-0.8777,-0.8798,-0.8849,-0.8874,-0.8911,-0.8899,-0.8938,-0.8967,-0.8973,-0.9025,-0.9047,-0.9087,-0.9144,-0.917,-0.9163,-0.9254,-0.923,-0.9232,-0.9236,-0.9269,-0.9276,-0.9283,-0.9198,-0.9198,-0.9197,0,0,-0.8797,-0.882,-0.8858,-0.8883,-0.8919,-0.8936,-0.8945,-0.8984,-0.8998,-0.9049,-0.9055,-0.9091,-0.9159,-0.9187,-0.9211,-0.9268,-0.9272,-0.9281,-0.9303,-0.9336,-0.9342,-0.9348,-0.9369,-0.9376,-0.9286,-0.9286,-0.9286,0,-0.8812,-0.8865,-0.8879,-0.8918,-0.8941,-0.8946,-0.8987,-0.9011,-0.906,-0.9077,-0.9068,-0.9154,-0.9181,-0.9245,-0.9259,-0.9277,-0.929,-0.9276,-0.934,-0.9345,-0.9351,-0.9372,-0.9379,-0.9287,-0.9287,-0.9286,-0.9286,0,-0.8882,-0.8919,-0.8946,-0.899,-0.9017,-0.9057,-0.9078,-0.9104,-0.9112,-0.913,-0.9184,-0.9217,-0.9263,-0.9279,-0.9287,-0.9345,-0.9339,-0.9335,-0.932,-0.9358,-0.9379,-0.9387,-0.9288,-0.9288,-0.9287,-0.9287,0,0,-0.8933,-0.8983,-0.8993,-0.9014,-0.9055,-0.9085,-0.9126,-0.9168,-0.919,-0.9224,-0.9261,-0.9318,-0.9314,-0.9341,-0.9353,-0.9382,-0.9427,-0.9374,-0.9376,-0.9384,-0.9493,-0.9496,-0.9505,-0.9429,-0.9431,-0.9432,-0.949,0,-0.8984,-0.9054,-0.9068,-0.913,-0.9165,-0.9171,-0.9207,-0.9238,-0.9256,-0.9291,-0.9313,-0.9354,-0.9345,-0.9361,-0.939,-0.9415,-0.9449,-0.9411,-0.9466,-0.9467,-0.9455,-0.9516,-0.9519,-0.9572,-0.9498,-0.9499,-0.95,0,-0.9053,-0.9086,-0.915,-0.9187,-0.9202,-0.9234,-0.9275,-0.9307,-0.9343,-0.9355,-0.9384,-0.9393,-0.9439,-0.9421,-0.9485,-0.9459,-0.9483,-0.9498,-0.9501,-0.9507,-0.9486,-0.9525,-0.959,-0.9598,-0.9513,-0.9512,-0.9511,0,-0.9085,-0.9145,-0.9192,-0.9209,-0.9253,-0.9275,-0.9295,-0.9329,-0.9354,-0.939,-0.9407,-0.9449,-0.9473,-0.9506,-0.9528,-0.9512,-0.9591,-0.9575,-0.9604,-0.9604,-0.9621,-0.962,-0.9692,-0.9635,-0.9635,-0.9635,-0.9634,0,-0.9141,-0.918,-0.9206,-0.9235,-0.9281,-0.9297,-0.9343,-0.9363,-0.9393,-0.9428,-0.9437,-0.947,-0.9495,-0.9533,-0.955,-0.9602,-0.9613,-0.9625,-0.9629,-0.9624,-0.9623,-0.9641,-0.9638,-0.9637,-0.9636,-0.9636,-0.9636,0,-0.9184,-0.9202,-0.9254,-0.929,-0.9301,-0.9333,-0.9365,-0.9395,-0.9414,-0.9458,-0.9469,-0.95,-0.9544,-0.9568,-0.9625,-0.9637,-0.9695,-0.9697,-0.9682,-0.9684,-0.9712,-0.9709,-0.9798,-0.9811,-0.9745,-0.9746,-0.9746,0,-0.9218,-0.9248,-0.9288,-0.931,-0.933,-0.9366,-0.9391,-0.9409,-0.9436,-0.9479,-0.9504,-0.9548,-0.9585,-0.9656,-0.9685,-0.9729,-0.9733,-0.9761,-0.974,-0.9734,-0.9734,-0.9732,-0.9736,-0.9765,-0.9765,-0.9766,-0.9766,0,-0.9278,-0.9285,-0.9319,-0.9357,-0.9386,-0.9417,-0.9448,-0.9467,-0.9491,-0.952,-0.9564,-0.9593,-0.965,-0.9695,-0.974,-0.9764,-0.977,-0.9773,-0.9782,-0.9778,-0.9768,-0.9774,-0.9693,-0.9771,-0.977,-0.977,-0.977,-0.9769,-0.9318,-0.9345,-0.9377,-0.9415,-0.944,-0.9469,-0.9498,-0.952,-0.9556,-0.9602,-0.9612,-0.9659,-0.9696,-0.9758,-0.9783,-0.9822,-0.9816,-0.983,-0.9833,-0.9836,-0.9838,-0.9761,-0.983,-0.983,-0.983,-0.983,-0.983,0,-0.9378,-0.9399,-0.9433,-0.9475,-0.9506,-0.9506,-0.9541,-0.9567,-0.9608,-0.964,-0.9675,-0.9727,-0.9771,-0.9803,-0.9848,-0.9874,-0.9878,-0.9885,-0.9884,-0.9889,-0.9839,-0.9827,-0.9881,-0.9881,-0.9881,-0.9881,-0.9881,-0.9881,-0.9413,-0.946,-0.9471,-0.9531,-0.9553,-0.9596,-0.9616,-0.9644,-0.967,-0.9726,-0.9762,-0.9781,-0.9815,-0.9862,-0.9904,-0.9912,-0.9929,-0.9936,-0.9945,-0.9898,-0.9893,-0.9888,-0.9876,-0.9939,-0.9939,-0.9992,-0.9992,-0.9993]},{"header":{"parameterUnit":"m.s-1","parameterCategory":1,"la1":30.2991,"la2":30.254,"lo1":-89.0895,"lo2":-89.0444,"dx":0.0017,"dy":0.0017,"nx":28,"ny":28,"refTime":"2022-12-12T03:00:00:Z","depth":0,"parameterNumber":3,"parameterNumberName":"V-component_of_WINDS"},"data":[0,0,0,0,0,0,0,0,0,0,0,0,0,0,0,0,0,0,0,0,0,0,0,0,0,0,0,0,0,0,0,0,0,0,0,0,0,0,0,0,0,0,0,0,0,0,0,0,0,0,0,0,0,0,0,0,0,0,-1.2422,-1.2423,0,-1.2495,-1.2496,-1.2497,-1.2519,-1.2519,-1.2519,-1.2518,-1.2588,-1.259,-1.2592,0,0,0,0,0,0,0,0,0,0,0,0,0,-1.2297,-1.2299,-1.2422,-1.2423,-1.2424,-1.2495,-1.2496,-1.2497,-1.2519,-1.2519,-1.2519,-1.2518,-1.2587,-1.259,-1.2593,0,0,0,0,0,0,0,0,0,0,0,0,0,-1.2359,-1.23,-1.2422,-1.2444,-1.2447,-1.2495,-1.2496,-1.2497,-1.2519,-1.2519,-1.2518,-1.2518,-1.2587,-1.259,-1.2593,-1.2623,0,0,-1.2603,-1.2604,0,0,0,0,0,0,0,0,-1.2355,-1.2363,-1.244,-1.2443,-1.2446,-1.2498,-1.2478,-1.2539,-1.252,-1.2492,-1.2518,-1.2518,-1.2558,-1.2564,-1.2578,-1.2627,-1.263,-1.2603,-1.2605,-1.2607,-1.2608,0,0,0,0,0,0,0,-1.2351,-1.236,-1.2451,-1.2441,-1.2445,-1.2448,-1.2457,-1.2489,-1.2527,-1.2494,-1.2496,-1.2504,-1.256,-1.2575,-1.258,-1.2631,-1.2603,-1.2606,-1.2608,-1.2609,-1.2705,-1.2706,0,0,0,0,0,0,-1.2344,-1.2357,-1.2449,-1.2453,-1.2399,-1.2451,-1.246,-1.2481,-1.2527,-1.2533,-1.2505,-1.2505,-1.257,-1.2576,-1.2583,-1.262,-1.2607,-1.261,-1.2612,-1.2705,-1.2706,-1.2706,0,0,0,0,0,0,-1.2341,-1.2352,-1.2446,-1.2406,-1.2418,-1.2454,-1.2477,-1.2483,-1.2499,-1.2535,-1.2541,-1.2514,-1.257,-1.2578,-1.2613,-1.2623,-1.2611,-1.2614,-1.2704,-1.2705,-1.2706,-1.2696,0,0,0,0,0,0,-1.2337,-1.2351,-1.2364,-1.2406,-1.242,-1.2477,-1.2478,-1.2485,-1.2505,-1.2506,-1.2545,-1.2551,-1.257,-1.2608,-1.2616,-1.2627,-1.2617,-1.2703,-1.2704,-1.2706,-1.2696,-1.2697,-1.2698,0,0,0,0,0,-1.2333,-1.2358,-1.2365,-1.2376,-1.2438,-1.2477,-1.2485,-1.2508,-1.2506,-1.2518,-1.2541,-1.255,-1.2621,-1.2611,-1.2621,-1.2633,-1.2703,-1.2704,-1.2705,-1.2696,-1.2697,-1.2698,0,0,0,0,0,0,-1.2315,-1.2364,-1.2372,-1.2411,-1.244,-1.2481,-1.2498,-1.2508,-1.2537,-1.2537,-1.2562,-1.2571,-1.2603,-1.2622,-1.2611,-1.2664,-1.2662,-1.2665,-1.2651,-1.2652,-1.2653,-1.2648,-1.2619,0,0,0,0,0,-1.2316,-1.2346,-1.2386,-1.2417,-1.2431,-1.2462,-1.248,-1.2495,-1.2525,-1.2537,-1.2562,-1.259,-1.2618,-1.2636,-1.2664,-1.2698,-1.2706,-1.2711,-1.2712,-1.2713,-1.2715,-1.2733,-1.2735,-1.2711,-1.2711,-1.2711,0,0,-1.2317,-1.2348,-1.2365,-1.2414,-1.2438,-1.2466,-1.2472,-1.2502,-1.2523,-1.2541,-1.2576,-1.2595,-1.2627,-1.2662,-1.2678,-1.2678,-1.2724,-1.2714,-1.2714,-1.2717,-1.2735,-1.2737,-1.2739,-1.2711,-1.2711,-1.2711,0,0,-1.2335,-1.2362,-1.239,-1.2414,-1.2451,-1.2471,-1.2478,-1.2517,-1.2531,-1.2566,-1.258,-1.2604,-1.2653,-1.2675,-1.2692,-1.2717,-1.2725,-1.2725,-1.2729,-1.2747,-1.2749,-1.2751,-1.2758,-1.2761,-1.2727,-1.2727,-1.2727,0,-1.2332,-1.2378,-1.2403,-1.2432,-1.2453,-1.2471,-1.2499,-1.252,-1.2564,-1.2576,-1.2576,-1.2637,-1.266,-1.2699,-1.2705,-1.2719,-1.2726,-1.2721,-1.2747,-1.2749,-1.2751,-1.2759,-1.2762,-1.2727,-1.2727,-1.2727,-1.2727,0,-1.2372,-1.2403,-1.2421,-1.2464,-1.2486,-1.2514,-1.2542,-1.2561,-1.2573,-1.2593,-1.2627,-1.2656,-1.2689,-1.27,-1.2712,-1.274,-1.2739,-1.2742,-1.274,-1.2753,-1.276,-1.2763,-1.2727,-1.2727,-1.2727,-1.2727,0,0,-1.2381,-1.2437,-1.2443,-1.2462,-1.2504,-1.2527,-1.2555,-1.259,-1.2605,-1.2633,-1.2657,-1.2697,-1.27,-1.272,-1.2734,-1.2749,-1.2766,-1.2751,-1.2752,-1.2752,-1.2797,-1.2794,-1.2797,-1.2771,-1.2772,-1.2773,-1.2794,0,-1.2404,-1.2457,-1.248,-1.2522,-1.255,-1.2567,-1.2591,-1.2618,-1.2637,-1.2661,-1.2681,-1.2709,-1.2712,-1.2724,-1.2739,-1.276,-1.2775,-1.2759,-1.2792,-1.2793,-1.2783,-1.2802,-1.2799,-1.2818,-1.2797,-1.2798,-1.2798,0,-1.2438,-1.2468,-1.2513,-1.255,-1.2563,-1.2585,-1.2617,-1.2641,-1.2671,-1.2683,-1.2705,-1.2718,-1.2746,-1.2743,-1.2781,-1.2769,-1.2784,-1.2796,-1.2797,-1.2801,-1.2796,-1.2805,-1.2825,-1.2828,-1.2803,-1.2803,-1.2803,0,-1.2439,-1.2491,-1.2525,-1.2541,-1.2585,-1.2599,-1.2618,-1.2648,-1.2666,-1.2694,-1.2706,-1.2736,-1.2752,-1.2774,-1.2794,-1.279,-1.2829,-1.2828,-1.2839,-1.2838,-1.2847,-1.2846,-1.2869,-1.2856,-1.2856,-1.2856,-1.2856,0,-1.2462,-1.2489,-1.2526,-1.2547,-1.2576,-1.2601,-1.2629,-1.2649,-1.2674,-1.2697,-1.2713,-1.2734,-1.276,-1.2784,-1.2799,-1.2828,-1.2835,-1.2844,-1.2848,-1.2843,-1.2842,-1.2853,-1.2852,-1.2857,-1.2857,-1.2857,-1.2857,0,-1.247,-1.2496,-1.2533,-1.2572,-1.2582,-1.2602,-1.2634,-1.2654,-1.2673,-1.2702,-1.271,-1.2739,-1.2767,-1.279,-1.2826,-1.2837,-1.2866,-1.2871,-1.2857,-1.2859,-1.2869,-1.2867,-1.2899,-1.2904,-1.2889,-1.2889,-1.2889,0,-1.2483,-1.2504,-1.2545,-1.2562,-1.2581,-1.2609,-1.2628,-1.2652,-1.2671,-1.2706,-1.2721,-1.2751,-1.2776,-1.282,-1.2844,-1.2871,-1.2876,-1.2885,-1.288,-1.2874,-1.2876,-1.2874,-1.2876,-1.2886,-1.2886,-1.2886,-1.2886,0,-1.2503,-1.2514,-1.2543,-1.2575,-1.2598,-1.2624,-1.265,-1.2663,-1.2692,-1.2712,-1.2742,-1.2762,-1.2799,-1.2828,-1.2858,-1.2875,-1.2885,-1.2887,-1.2891,-1.2886,-1.2877,-1.2881,-1.2858,-1.2887,-1.2886,-1.2886,-1.2886,-1.2886,-1.2513,-1.2532,-1.2564,-1.2594,-1.2617,-1.2641,-1.2661,-1.2683,-1.2709,-1.2743,-1.2754,-1.2785,-1.2812,-1.2854,-1.2871,-1.2893,-1.2894,-1.29,-1.2901,-1.2902,-1.2902,-1.2873,-1.2899,-1.2899,-1.2899,-1.2899,-1.2899,0,-1.2533,-1.2554,-1.2582,-1.2619,-1.2643,-1.2651,-1.268,-1.2699,-1.2726,-1.2751,-1.2776,-1.281,-1.2837,-1.2862,-1.2891,-1.2904,-1.2909,-1.2911,-1.291,-1.2913,-1.29,-1.2893,-1.2906,-1.2906,-1.2906,-1.2906,-1.2906,-1.2906,-1.2547,-1.258,-1.2594,-1.2638,-1.2658,-1.269,-1.2705,-1.2727,-1.2747,-1.2785,-1.2808,-1.2825,-1.285,-1.288,-1.2905,-1.2911,-1.2921,-1.2921,-1.2928,-1.2915,-1.2914,-1.2913,-1.2907,-1.2923,-1.2923,-1.294,-1.294,-1.294]}]]